TimeCDT,TemperatureF,Dew PointF,Humidity,Sea Level PressureIn,VisibilityMPH,Wind Direction,Wind SpeedMPH,Gust SpeedMPH,PrecipitationIn,Events,Conditions,WindDirDegrees,DateUTC
12:13 AM,65.5,59.4,81,29.85,10.0,NNW,4.6,-,N/A,,Scattered Clouds,330,2013-06-29 05:13:00
12:33 AM,65.5,59.4,81,29.84,10.0,NW,4.6,-,N/A,,Clear,320,2013-06-29 05:33:00
12:53 AM,64.9,59.2,82,29.84,10.0,NNW,6.9,-,N/A,,Clear,330,2013-06-29 05:53:00
1:13 AM,64.6,59.0,82,29.84,10.0,NW,5.8,-,N/A,,Clear,320,2013-06-29 06:13:00
1:32 AM,64.4,58.8,82,29.83,10.0,NW,5.8,-,N/A,,Clear,320,2013-06-29 06:32:00
1:53 AM,64.0,59.0,84,29.83,10.0,NW,6.9,-,N/A,,Clear,310,2013-06-29 06:53:00
2:13 AM,63.9,59.2,85,29.83,10.0,NW,5.8,-,N/A,,Clear,320,2013-06-29 07:13:00
2:33 AM,63.7,59.0,85,29.83,10.0,NW,9.2,-,N/A,,Clear,320,2013-06-29 07:33:00
2:53 AM,63.5,59.0,85,29.83,10.0,NW,8.1,-,N/A,,Clear,320,2013-06-29 07:53:00
3:13 AM,63.0,59.0,87,29.83,10.0,NW,5.8,-,N/A,Thunderstorm,Clear,320,2013-06-29 08:13:00
3:33 AM,63.0,59.4,88,29.83,10.0,NW,8.1,-,N/A,,Scattered Clouds,320,2013-06-29 08:33:00
3:53 AM,63.7,59.4,86,29.83,10.0,NNW,10.4,17.3,N/A,,Overcast,330,2013-06-29 08:53:00
4:13 AM,63.7,59.5,86,29.84,10.0,NNW,6.9,-,N/A,,Overcast,330,2013-06-29 09:13:00
4:33 AM,63.1,59.4,87,29.84,10.0,NNW,8.1,-,N/A,,Mostly Cloudy,330,2013-06-29 09:33:00
4:53 AM,63.1,59.4,87,29.84,10.0,NNW,10.4,-,N/A,,Mostly Cloudy,330,2013-06-29 09:53:00
5:13 AM,63.5,59.4,86,29.84,10.0,NNW,9.2,-,N/A,,Overcast,340,2013-06-29 10:13:00
5:33 AM,63.5,59.4,86,29.85,10.0,NNW,8.1,16.1,N/A,,Overcast,340,2013-06-29 10:33:00
5:53 AM,63.1,59.9,89,29.85,10.0,NNW,10.4,-,N/A,Rain,Light Rain,340,2013-06-29 10:53:00
6:13 AM,62.8,60.3,91,29.87,10.0,North,8.1,-,N/A,Rain,Light Rain,350,2013-06-29 11:13:00
6:33 AM,62.6,60.6,93,29.88,10.0,North,5.8,-,N/A,Rain,Light Rain,360,2013-06-29 11:33:00
6:53 AM,62.6,60.1,91,29.89,10.0,North,8.1,-,N/A,,Overcast,10,2013-06-29 11:53:00
7:13 AM,62.6,60.3,92,29.90,10.0,NNE,10.4,-,N/A,,Overcast,20,2013-06-29 12:13:00
7:33 AM,62.6,60.4,93,29.90,10.0,NNE,6.9,-,N/A,,Overcast,20,2013-06-29 12:33:00
7:53 AM,62.8,59.9,90,29.91,10.0,North,5.8,-,N/A,,Overcast,360,2013-06-29 12:53:00
8:13 AM,63.1,59.9,89,29.91,10.0,North,9.2,-,N/A,,Overcast,360,2013-06-29 13:13:00
8:33 AM,64.0,60.4,88,29.93,10.0,North,6.9,-,N/A,,Overcast,360,2013-06-29 13:33:00
8:53 AM,65.1,60.8,86,29.93,10.0,North,5.8,-,N/A,,Overcast,360,2013-06-29 13:53:00
9:13 AM,66.4,60.6,82,29.93,10.0,North,10.4,-,N/A,,Mostly Cloudy,10,2013-06-29 14:13:00
9:33 AM,68.0,59.9,75,29.93,10.0,North,11.5,17.3,N/A,,Mostly Cloudy,10,2013-06-29 14:33:00
9:53 AM,68.4,59.0,72,29.93,10.0,North,10.4,17.3,N/A,,Scattered Clouds,10,2013-06-29 14:53:00
10:13 AM,69.3,59.7,72,29.93,10.0,North,10.4,-,N/A,,Scattered Clouds,360,2013-06-29 15:13:00
10:32 AM,70.5,59.0,67,29.93,10.0,North,10.4,-,N/A,,Scattered Clouds,350,2013-06-29 15:32:00
10:53 AM,70.0,57.9,65,29.94,10.0,North,10.4,17.3,N/A,,Scattered Clouds,350,2013-06-29 15:53:00
11:13 AM,71.2,56.8,60,29.93,10.0,North,11.5,18.4,N/A,,Scattered Clouds,360,2013-06-29 16:13:00
11:33 AM,72.3,57.0,59,29.94,10.0,North,10.4,-,N/A,,Scattered Clouds,360,2013-06-29 16:33:00
11:53 AM,72.5,57.0,58,29.94,10.0,North,10.4,17.3,N/A,,Scattered Clouds,10,2013-06-29 16:53:00
12:13 PM,73.2,55.4,54,29.94,10.0,NNW,11.5,-,N/A,,Mostly Cloudy,340,2013-06-29 17:13:00
12:33 PM,74.1,54.3,50,29.94,10.0,North,11.5,19.6,N/A,,Scattered Clouds,350,2013-06-29 17:33:00
12:53 PM,73.9,52.9,48,29.94,10.0,North,12.7,19.6,N/A,,Scattered Clouds,10,2013-06-29 17:53:00
1:13 PM,73.0,54.5,52,29.94,10.0,North,11.5,18.4,N/A,,Mostly Cloudy,360,2013-06-29 18:13:00
1:33 PM,75.0,53.8,47,29.94,10.0,North,9.2,16.1,N/A,,Scattered Clouds,360,2013-06-29 18:33:00
1:53 PM,76.1,48.7,38,29.94,10.0,North,17.3,21.9,N/A,,Scattered Clouds,360,2013-06-29 18:53:00
2:13 PM,75.7,47.3,36,29.94,10.0,North,16.1,21.9,N/A,,Scattered Clouds,10,2013-06-29 19:13:00
2:33 PM,76.6,48.4,37,29.94,10.0,North,16.1,21.9,N/A,,Scattered Clouds,10,2013-06-29 19:33:00
2:53 PM,76.5,47.8,36,29.95,10.0,North,12.7,20.7,N/A,,Scattered Clouds,360,2013-06-29 19:53:00
3:13 PM,75.6,49.1,39,29.95,10.0,North,13.8,20.7,N/A,,Mostly Cloudy,10,2013-06-29 20:13:00
3:33 PM,76.6,49.3,38,29.95,10.0,North,13.8,20.7,N/A,,Scattered Clouds,10,2013-06-29 20:33:00
3:52 PM,77.0,51.3,40,29.95,10.0,NNE,12.7,19.6,N/A,,Scattered Clouds,30,2013-06-29 20:52:00
4:13 PM,75.6,50.2,41,29.95,10.0,North,13.8,20.7,N/A,,Scattered Clouds,350,2013-06-29 21:13:00
4:33 PM,75.6,47.3,37,29.95,10.0,North,8.1,18.4,N/A,,Clear,360,2013-06-29 21:33:00
4:53 PM,76.5,46.2,34,29.95,10.0,North,12.7,21.9,N/A,,Clear,10,2013-06-29 21:53:00
5:12 PM,76.5,47.1,35,29.95,10.0,NNE,17.3,24.2,N/A,,Clear,20,2013-06-29 22:12:00
5:33 PM,74.7,48.2,39,29.95,10.0,North,13.8,18.4,N/A,,Clear,10,2013-06-29 22:33:00
5:53 PM,75.9,45.7,34,29.96,10.0,NNE,13.8,20.7,N/A,,Clear,20,2013-06-29 22:53:00
6:13 PM,75.2,45.9,35,29.96,10.0,NNE,11.5,18.4,N/A,,Clear,20,2013-06-29 23:13:00
6:33 PM,74.5,46.6,37,29.97,10.0,North,9.2,18.4,N/A,,Clear,10,2013-06-29 23:33:00
6:53 PM,73.6,45.7,37,29.97,10.0,NNE,10.4,18.4,N/A,,Clear,20,2013-06-29 23:53:00
7:13 PM,72.5,47.7,41,29.98,10.0,NNE,6.9,-,N/A,,Clear,30,2013-06-30 00:13:00
7:33 PM,71.6,48.4,44,29.98,10.0,NNE,8.1,-,N/A,,Scattered Clouds,20,2013-06-30 00:33:00
7:53 PM,70.7,48.0,44,29.99,10.0,NE,5.8,-,N/A,,Clear,40,2013-06-30 00:53:00
8:13 PM,69.8,48.4,46,29.99,10.0,NNE,5.8,-,N/A,,Scattered Clouds,30,2013-06-30 01:13:00
8:33 PM,68.4,49.1,50,29.99,10.0,NNE,4.6,-,N/A,,Clear,30,2013-06-30 01:33:00
8:53 PM,67.1,50.2,55,29.99,10.0,NE,3.5,-,N/A,,Clear,40,2013-06-30 01:53:00
9:13 PM,65.1,50.7,60,29.99,10.0,NE,3.5,-,N/A,,Clear,50,2013-06-30 02:13:00
9:33 PM,64.4,51.6,63,29.99,10.0,ENE,4.6,-,N/A,,Scattered Clouds,60,2013-06-30 02:33:00
9:53 PM,64.0,52.2,65,30.00,10.0,NNE,3.5,-,N/A,,Scattered Clouds,20,2013-06-30 02:53:00
10:13 PM,62.6,52.5,70,30.01,10.0,Calm,Calm,-,N/A,,Scattered Clouds,0,2013-06-30 03:13:00
10:33 PM,61.7,52.9,73,30.02,10.0,Calm,Calm,-,N/A,,Scattered Clouds,0,2013-06-30 03:33:00
10:53 PM,60.8,53.8,78,30.02,10.0,Calm,Calm,-,N/A,,Clear,0,2013-06-30 03:53:00
11:13 PM,61.3,53.4,75,30.02,10.0,Calm,Calm,-,N/A,,Clear,0,2013-06-30 04:13:00
11:32 PM,58.8,54.1,84,30.03,10.0,Calm,Calm,-,N/A,,Clear,0,2013-06-30 04:32:00
11:53 PM,60.1,53.8,80,30.04,10.0,Calm,Calm,-,N/A,,Scattered Clouds,0,2013-06-30 04:53:00